Weather History for Mount Pleasant, IA

Change the Weather History Date:

Friday, January 4, 2013

  Actual Average Record
Temperature  
Mean Temperature 22 °F -  
Max Temperature 37 °F 29 °F 51 °F (1964)
Min Temperature 8 °F 11 °F -18 °F (1969)
Degree Days  
Heating Degree Days 42    
Moisture  
Dew Point 18 °F    
Average Humidity 78    
Maximum Humidity 89    
Minimum Humidity 54    
Precipitation  
Precipitation 0.00 in - - ()
Sea Level Pressure  
Sea Level Pressure 30.26 in    
Wind  
Wind Speed 9 mph (SW)    
Max Wind Speed 16 mph    
Max Gust Speed 21 mph    
Visibility 10 miles    
Events      
Averages and records for this station are not official NWS values.
T = Trace of Precipitation, MM = Missing Value Source: NWS Daily Summary

Daily Weather History Graph

Daily Weather History Graph

Search for Another Location

Airport:

Trip Planner

Search our weather history database for the weather conditions in past years. The results will help you decide how hot, cold, wet, or windy it might be!

Date:

Astronomy

Jan. 04, 2013 Rise Set
Actual Time 7:30 AM CST 4:51 PM CST
Civil Twilight 7:00 AM CST 5:22 PM CST
Nautical Twilight 6:25 AM CST 5:56 PM CST
Astronomical Twilight 5:52 AM CST 6:30 PM CST
Moon No Moon Rise 11:10 AM CST (1/4)
Length of Visible Light 10h 22m
Length of Day
9h 20m
Waning Gibbous, 55% of the Moon is Illuminated
Jan 4
Waning Gibbous
Jan 4
Last Quarter
Jan 11
New
Jan 18
First Quarter
Jan 26
Full

Hourly Weather History & Observations

Time (CST) Temp. Windchill Dew Point Humidity Pressure Visibility Wind Dir Wind Speed Gust Speed Precip Events Conditions
12:15 AM 9.1 °F -0.7 °F 5.9 °F 87% 30.34 in 10.0 mi SW 5.8 mph - N/A   Clear
12:35 AM 8.8 °F -1.1 °F 5.9 °F 88% 30.33 in 10.0 mi SW 5.8 mph - N/A   Clear
12:55 AM 8.6 °F -2.6 °F 5.7 °F 88% 30.32 in 10.0 mi SW 6.9 mph - N/A   Clear
1:15 AM 9.0 °F 0.6 °F 6.1 °F 88% 30.32 in 10.0 mi SW 4.6 mph - N/A   Clear
1:35 AM 9.9 °F -1.1 °F 6.3 °F 85% 30.32 in 10.0 mi SW 6.9 mph - N/A   Clear
1:55 AM 9.5 °F -0.3 °F 6.1 °F 86% 30.31 in 10.0 mi WSW 5.8 mph - N/A   Clear
2:15 AM 9.3 °F -0.5 °F 6.1 °F 87% 30.32 in 10.0 mi SW 5.8 mph - N/A   Clear
2:35 AM 10.0 °F 0.4 °F 7.2 °F 88% 30.32 in 10.0 mi SW 5.8 mph - N/A   Clear
2:55 AM 9.3 °F -1.7 °F 6.4 °F 88% 30.32 in 10.0 mi SW 6.9 mph - N/A   Clear
3:15 AM 9.1 °F -1.9 °F 5.9 °F 87% 30.32 in 10.0 mi SSW 6.9 mph - N/A   Clear
5:55 AM 10.4 °F -1.5 °F 7.5 °F 88% 30.30 in 10.0 mi SSW 8.1 mph - N/A   Clear
6:15 AM 11.3 °F -1.3 °F 8.4 °F 88% 30.28 in 10.0 mi SSW 9.2 mph - N/A   Clear
6:35 AM 12.6 °F 0.2 °F 9.5 °F 88% 30.28 in 10.0 mi SW 9.2 mph - N/A   Clear
7:15 AM 12.0 °F 0.5 °F 9.1 °F 88% 30.29 in 10.0 mi SW 8.1 mph - N/A   Clear
7:35 AM 11.7 °F 0.0 °F 8.8 °F 88% 30.28 in 10.0 mi SSW 8.1 mph - N/A   Clear
7:55 AM 12.0 °F 0.5 °F 9.3 °F 89% 30.29 in 10.0 mi SSW 8.1 mph - N/A   Clear
8:15 AM 13.1 °F 2.8 °F 10.4 °F 89% 30.29 in 10.0 mi SSW 6.9 mph - N/A   Clear
8:35 AM 14.9 °F 3.1 °F 12.2 °F 89% 30.28 in 7.0 mi SSW 9.2 mph - N/A   Clear
8:55 AM 17.6 °F 6.4 °F 14.2 °F 86% 30.28 in 10.0 mi SW 9.2 mph - N/A   Clear
9:15 AM 20.3 °F 9.0 °F 16.3 °F 85% 30.29 in 10.0 mi SW 10.4 mph - N/A   Clear
9:35 AM 21.9 °F 10.4 °F 17.2 °F 82% 30.30 in 10.0 mi SW 11.5 mph - N/A   Clear
9:55 AM 23.4 °F 11.1 °F 18.3 °F 81% 30.30 in 10.0 mi SW 13.8 mph - N/A   Clear
10:15 AM 24.6 °F 13.8 °F 19.0 °F 79% 30.30 in 10.0 mi SW 11.5 mph - N/A   Clear
10:35 AM 26.2 °F 14.7 °F 19.6 °F 76% 30.30 in 10.0 mi SW 13.8 mph - N/A   Clear
10:55 AM 27.5 °F 17.4 °F 20.5 °F 75% 30.30 in 10.0 mi SW 11.5 mph - N/A   Clear
11:15 AM 28.9 °F 17.7 °F 21.0 °F 72% 30.28 in 10.0 mi SW 15.0 mph - N/A   Clear
11:35 AM 29.8 °F 18.9 °F 21.9 °F 72% 30.27 in 10.0 mi SW 15.0 mph - N/A   Clear
11:55 AM 30.9 °F 19.8 °F 22.6 °F 71% 30.26 in 10.0 mi SW 16.1 mph - N/A   Clear
12:15 PM 32.0 °F 21.6 °F 23.2 °F 70% 30.25 in 10.0 mi SW 15.0 mph 19.6 mph N/A   Clear
12:35 PM 32.7 °F 23.4 °F 23.4 °F 68% 30.24 in 10.0 mi SW 12.7 mph - N/A   Clear
12:55 PM 34.0 °F 24.2 °F 23.5 °F 66% 30.23 in 10.0 mi SW 15.0 mph 19.6 mph N/A   Clear
1:15 PM 35.4 °F 25.6 °F 23.5 °F 62% 30.23 in 10.0 mi WSW 16.1 mph 20.7 mph N/A   Clear
1:35 PM 36.5 °F 28.2 °F 24.4 °F 62% 30.22 in 10.0 mi SW 12.7 mph 16.1 mph N/A   Clear
1:55 PM 37.0 °F 28.5 °F 23.9 °F 59% 30.22 in 10.0 mi WSW 13.8 mph - N/A   Clear
2:15 PM 37.4 °F 28.5 °F 22.8 °F 56% 30.21 in 10.0 mi WSW 15.0 mph 19.6 mph N/A   Clear
2:35 PM 37.6 °F 30.0 °F 23.2 °F 56% 30.22 in 10.0 mi WSW 11.5 mph - N/A   Clear
2:55 PM 37.8 °F 30.2 °F 22.6 °F 54% 30.22 in 10.0 mi SW 11.5 mph - N/A   Clear
3:15 PM 37.9 °F 30.0 °F 23.7 °F 57% 30.22 in 10.0 mi WSW 12.7 mph - N/A   Clear
3:35 PM 37.6 °F 30.5 °F 23.7 °F 57% 30.23 in 10.0 mi SW 10.4 mph - N/A   Clear
3:55 PM 37.4 °F 30.8 °F 24.1 °F 59% 30.23 in 10.0 mi SW 9.2 mph - N/A   Clear
4:15 PM 36.0 °F 29.6 °F 25.2 °F 65% 30.23 in 10.0 mi SSW 8.1 mph - N/A   Clear
4:35 PM 34.5 °F 27.3 °F 25.5 °F 70% 30.22 in 10.0 mi SSW 9.2 mph - N/A   Clear
4:55 PM 33.3 °F 26.4 °F 25.2 °F 72% 30.23 in 10.0 mi SSW 8.1 mph - N/A   Clear
5:15 PM 32.7 °F 25.0 °F 25.0 °F 73% 30.23 in 10.0 mi SSW 9.2 mph - N/A   Clear
5:35 PM 32.0 °F 23.0 °F 24.8 °F 75% 30.23 in 10.0 mi SSW 11.5 mph - N/A   Clear
5:55 PM 31.8 °F 22.8 °F 24.8 °F 75% 30.23 in 10.0 mi SSW 11.5 mph - N/A   Clear
6:15 PM 31.3 °F 21.1 °F 24.6 °F 76% 30.23 in 10.0 mi SSW 13.8 mph - N/A   Clear
6:35 PM 31.5 °F 22.3 °F 24.6 °F 76% 30.24 in 10.0 mi SSW 11.5 mph - N/A   Clear
6:55 PM 30.9 °F 22.2 °F 24.3 °F 76% 30.24 in 10.0 mi SSW 10.4 mph - N/A   Clear
7:15 PM 30.4 °F 20.5 °F 23.9 °F 77% 30.24 in 10.0 mi SSW 12.7 mph - N/A   Clear
7:35 PM 29.8 °F 20.3 °F 23.7 °F 78% 30.24 in 10.0 mi SSW 11.5 mph - N/A   Clear
7:55 PM 29.7 °F 22.0 °F 23.7 °F 79% 30.23 in 10.0 mi SSW 8.1 mph - N/A   Clear
8:15 PM 28.4 °F 20.4 °F 23.0 °F 80% 30.23 in 10.0 mi SSW 8.1 mph - N/A   Clear
8:35 PM 27.5 °F 18.6 °F 23.0 °F 83% 30.23 in 10.0 mi SSW 9.2 mph - N/A   Clear
8:55 PM 27.9 °F 19.1 °F 23.0 °F 82% 30.23 in 10.0 mi SSW 9.2 mph - N/A   Clear
9:15 PM 27.9 °F 18.4 °F 23.0 °F 82% 30.23 in 10.0 mi SSW 10.4 mph - N/A   Clear
9:35 PM 27.5 °F 17.4 °F 23.0 °F 83% 30.23 in 10.0 mi SSW 11.5 mph - N/A   Clear
9:55 PM 27.1 °F 18.2 °F 22.8 °F 84% 30.23 in 10.0 mi SSW 9.2 mph - N/A   Clear
10:15 PM 26.6 °F 18.2 °F 22.5 °F 84% 30.23 in 10.0 mi SSW 8.1 mph - N/A   Clear
10:35 PM 25.7 °F 16.4 °F 21.9 °F 86% 30.23 in 10.0 mi SSW 9.2 mph - N/A   Clear
11:15 PM 25.5 °F 18.7 °F 21.7 °F 86% 30.23 in 10.0 mi SSW 5.8 mph - N/A   Clear
11:35 PM 24.8 °F 16.9 °F 21.2 °F 86% 30.23 in 10.0 mi South 6.9 mph - N/A   Clear
11:55 PM 24.6 °F 16.7 °F 21.2 °F 87% 30.22 in 10.0 mi South 6.9 mph - N/A   Clear